#timestamp,LO_Frequency,Hit,StdDev 
1641405615.9,286046993.3,Y
1641405635.7,286046999.5,P
1641405655.6,286046998.6,N
1641405675.4,286047001.2,N
1641405695.2,286046999.1,N
1641405715.1,286046997.3,N
1641405716.0,286046997.3,N
1641405735.8,286046997.5,N
1641405755.6,286046994.9,Y
1641405775.5,286046996.8,P
1641405795.3,286046998.8,N
1641405815.1,286046996.8,P
1641405835.9,286046999.3,N
1641405855.7,286046997.1,N
1641405875.5,286046998.1,N
1641405895.4,286047000.2,N
1641405915.2,286046999.8,N
1641405935.0,286047002.3,N
1641405935.9,286047002.3,N
1641405955.8,286047001.9,N
1641405975.6,286047002.3,N
1641405995.4,286046998.4,N
1641406015.3,286046997.1,N
1641406035.1,286046995.4,N
1641406055.8,286046995.1,N
1641406075.7,286046994.9,N
1641406095.5,286046997.6,N
1641406115.3,286046997.6,N
1641406135.2,286046998.9,N
1641406155.0,286046997.5,N
1641406155.9,286046997.5,N
1641406175.7,286046997.5,N
1641406195.6,286046997.7,N
1641406215.4,286046997.3,N
1641406235.2,286046997.3,N
1641406255.1,286046995.2,N
1641406256.0,286046995.2,N
1641406275.8,286046995.6,N
1641406295.6,286046996.4,N
1641406315.5,286046996.1,N
1641406335.3,286046995.8,N
1641406355.1,286046996.1,N
1641406375.9,286046996.4,N
1641406395.7,286046993.8,N
1641406415.5,286046996.3,N
1641406435.4,286046998.0,N
1641406455.2,286046995.3,N
1641406475.0,286046995.4,N
1641406475.9,286046995.4,N
1641406495.8,286046996.0,N
1641406515.6,286046996.0,N
1641406535.5,286046993.4,Y
1641406555.3,286046996.8,P
1641406575.1,286046997.9,P
1641406595.9,286046997.7,P
1641406615.7,286046997.8,Y
1641406635.5,286046998.7,P
1641406655.4,286047000.7,N
1641406675.2,286047000.6,N
1641406695.0,286046998.8,N
1641406695.9,286046998.8,N
1641406715.8,286046996.6,N
1641406735.6,286046999.1,N
1641406755.4,286046999.3,N
1641406775.3,286047000.8,N
1641406795.1,286046998.9,N
1641406796.0,286046998.9,N
1641406815.8,286046999.3,N
1641406835.7,286046999.2,N
1641406855.5,286046999.3,N
1641406875.3,286046999.3,N
1641406895.2,286046999.5,N
1641406915.9,286046997.6,N
1641406935.7,286046995.1,Y
1641406955.6,286046999.3,P
1641406975.4,286046999.1,P
1641406995.2,286047000.8,P
1641407015.1,286046996.9,Y
1641407016.0,286046996.9,P
1641407035.8,286046998.6,N
1641407055.6,286046997.6,N
1641407075.5,286046997.3,N
1641407095.3,286046996.6,Y
1641407115.1,286046999.5,P
1641407135.9,286046997.0,P
1641407155.7,286046996.9,P
1641407175.5,286046997.7,N
1641407195.4,286046999.5,N
1641407215.2,286047000.9,N
1641407235.0,286046998.4,N
1641407235.9,286046998.4,N
1641407255.8,286047000.8,N
1641407275.6,286046998.2,N
1641407295.4,286046998.4,N
1641407315.3,286046998.9,N
1641407335.1,286046997.2,N
1641407336.0,286046997.2,N
1641407355.8,286046995.4,Y
1641407375.7,286046999.2,P
1641407395.5,286046996.7,P
1641407415.3,286046996.7,P
1641407435.2,286046998.1,N
1641407455.9,286047002.7,N
1641407475.7,286047000.0,N
1641407495.6,286047002.6,N
1641407515.4,286047000.5,N
1641407535.2,286047001.1,N
1641407555.1,286047001.2,N
1641407556.0,286047001.2,N
1641407575.8,286046999.4,N
1641407595.6,286046997.4,N
1641407615.5,286046999.6,N
1641407635.3,286046998.2,N
1641407655.1,286046997.6,N
1641407675.9,286046995.0,N
1641407695.7,286046993.7,Y
1641407715.5,286046997.2,P
1641407735.4,286046995.7,P
1641407755.2,286046995.2,P
1641407775.0,286046997.6,N
1641407775.9,286046997.6,N
1641407795.8,286046997.2,N
1641407815.6,286046999.2,N
1641407835.4,286046998.9,N
1641407855.3,286046998.8,N
1641407875.1,286046999.6,N
1641407895.8,286046998.3,N
1641407915.7,286046996.9,N
1641407935.5,286046997.5,N
1641407955.3,286046996.6,N
1641407975.2,286046999.2,N
1641407995.0,286046997.4,N
1641407995.9,286046997.4,N
1641408015.7,286046999.1,N
1641408035.6,286046995.1,Y
1641408055.4,286046997.0,P
1641408075.2,286046995.1,P
1641408095.1,286046995.3,P
1641408096.0,286046995.3,Y
1641408115.8,286047000.5,P
1641408135.6,286047002.5,N
1641408155.5,286047002.8,N
1641408175.3,286047002.4,N
1641408195.1,286046999.9,N
1641408215.9,286047003.6,N
1641408235.7,286047001.6,N
1641408255.5,286047001.4,N
1641408275.4,286047002.2,N
1641408295.2,286047001.0,N
1641408315.0,286047000.4,N
1641408315.9,286047000.4,N
1641408335.8,286047002.1,N
1641408355.6,286047004.4,N
1641408375.4,286047002.5,N
1641408395.3,286047002.2,N
1641408415.1,286046999.8,N
1641408435.8,286047001.6,N
1641408455.7,286047000.3,N
1641408475.5,286047001.2,N
1641408495.3,286047000.0,N
1641408515.2,286047000.3,N
1641408535.0,286047000.5,N
1641408535.9,286047000.5,N
1641408555.7,286046999.0,N
1641408575.6,286046997.0,N
1641408595.4,286046998.0,N
1641408615.2,286046998.7,N
1641408635.1,286047001.0,N
1641408636.0,286047001.0,N
1641408655.8,286047000.0,N
1641408675.6,286047004.2,N
1641408695.5,286047001.1,N
1641408715.3,286046999.3,N
1641408735.1,286047000.8,N
1641408755.9,286047001.2,N
1641408775.7,286046998.8,N
1641408795.5,286046996.8,N
1641408815.4,286047000.9,N
1641408835.2,286047001.0,N
1641408855.0,286047000.1,N
1641408855.9,286047000.1,N
1641408875.8,286046998.2,N
1641408895.6,286047001.1,N
1641408915.4,286047000.9,N
1641408935.3,286046999.9,N
1641408955.1,286046999.8,N
1641408975.8,286047001.0,N
1641408995.7,286046998.8,N
1641409015.5,286046998.9,N
1641409035.3,286046996.9,N
1641409055.2,286046999.0,N
1641409075.0,286047000.3,N
1641409075.9,286047000.3,N
1641409095.7,286046999.4,N
1641409115.6,286046999.6,N
1641409135.4,286046999.4,N
1641409155.2,286046999.0,N
1641409175.1,286046996.5,N
1641409176.0,286046996.5,N
1641409195.8,286046997.8,N
